Location: Deurze
(52.9838°N, 6.6090°E)
Time: 19:26:27
(UTC+00:00)

Cosmos 1271 Rocket - Pass Details

Date: 11 March 2026
Orbit: 425 x 450 km, 81.2° (Epoch: 20 April)

Event Time Altitude Azimuth Distance (km) Brightness Sun altitude
Rises 18:01:44 0° 352° (N) 2,447 6.3 -5.5°
Reaches altitude 10° 18:03:53 10° 360° (N) 1,577 5.2 -5.9°
Maximum altitude 18:07:09 39° 71° (ENE) 683 2.9 -6.3°
Drops below altitude 10° 18:10:25 10° 143° (SE) 1,579 4.8 -6.8°
Sets 18:12:34 0° 151° (SSE) 2,450 5.8 -7.2°
